Volk, WI

7:30 AM CST on December 14, 2017 (GMT -0600)
Volk

Weather History for KVOK - April, 2014

Change the Weather History Date:

Friday, April 4, 2014

  Actual Average Record
Temperature  
Mean Temperature 32 °F -  
Max Temperature 34 °F 48 °F 73 °F (1997)
Min Temperature 28 °F 32 °F 20 °F (2007)
Degree Days  
Heating Degree Days 33    
Moisture  
Dew Point 32 °F    
Average Humidity 99    
Maximum Humidity 100    
Minimum Humidity 89    
Precipitation  
Precipitation 0.11 in - - ()
Sea Level Pressure  
Sea Level Pressure 29.64 in    
Wind  
Wind Speed 9 mph (North)    
Max Wind Speed 24 mph    
Max Gust Speed 36 mph    
Visibility 6 miles    
Events Rain , Snow    
Averages and records for this station are not official NWS values.
T = Trace of Precipitation, MM = Missing Value Source: NWS Daily Summary

Daily Weather History Graph

Daily Weather History Graph

Search for Another Location

Airport or City:

Trip Planner

Search our weather history database for the weather conditions in past years. The results will help you decide how hot, cold, wet, or windy it might be!

Date:

Astronomy

Apr. 04, 2014 Rise Set
Actual Time 6:37 AM CDT 7:31 PM CDT
Civil Twilight 6:07 AM CDT 8:01 PM CDT
Nautical Twilight 5:32 AM CDT 8:36 PM CDT
Astronomical Twilight 4:56 AM CDT 9:12 PM CDT
Moon 9:46 AM CDT (4/4) No Moon Set
Length of Visible Light 13h 53m
Length of Day
12h 54m
Waxing Crescent, 25% of the Moon is Illuminated
Apr 4
Waxing Crescent
Apr 7
First Quarter
Apr 15
Full
Apr 22
Last Quarter
Apr 29
New

Hourly Weather History & Observations

Time (CDT) Temp. Windchill Dew Point Humidity Pressure Visibility Wind Dir Wind Speed Gust Speed Precip Events Conditions
12:18 AM 32.0 °F 22.5 °F 32.0 °F 100% 29.65 in 9.0 mi East 12.7 mph - N/A Rain Light Freezing Rain
12:25 AM 32.0 °F 23.0 °F 32.0 °F 100% 29.64 in 7.0 mi East 11.5 mph - N/A Rain Light Rain
12:30 AM 32.0 °F 23.6 °F 32.0 °F 100% 29.64 in 6.0 mi ESE 10.4 mph - N/A Rain Light Rain
12:35 AM 32.0 °F 24.2 °F 32.0 °F 100% 29.64 in 8.0 mi ESE 9.2 mph - N/A Rain Light Rain
12:40 AM 32.0 °F 26.4 °F 32.0 °F 100% 29.65 in 8.0 mi East 5.8 mph - N/A Rain Light Rain
12:45 AM 32.0 °F - 32.0 °F 100% 29.66 in 7.0 mi Variable 2.3 mph - N/A Rain Light Rain
12:55 AM 32.0 °F 25.6 °F 32.0 °F 100% 29.65 in 10.0 mi ENE 6.9 mph - N/A Rain Light Rain
12:58 AM 32.0 °F 25.6 °F 32.0 °F 100% 29.69 in 10.0 mi ENE 6.9 mph - 0.04 in Rain Light Rain
1:12 AM 32.0 °F 26.4 °F 32.0 °F 100% 29.65 in 10.0 mi East 5.8 mph - N/A   Overcast
1:58 AM 32.4 °F 29.1 °F 32.4 °F 100% 29.66 in 10.0 mi NE 3.5 mph - 0.01 in   Overcast
2:03 AM 32.0 °F 27.5 °F 32.0 °F 100% 29.62 in 10.0 mi NE 4.6 mph - N/A   Overcast
2:13 AM 32.0 °F 26.4 °F 32.0 °F 100% 29.61 in 9.0 mi NE 5.8 mph - N/A   Overcast
2:23 AM 32.0 °F 24.8 °F 32.0 °F 100% 29.60 in 8.0 mi ENE 8.1 mph - N/A   Overcast
2:43 AM 32.0 °F 26.4 °F 32.0 °F 100% 29.59 in 4.0 mi ENE 5.8 mph - N/A   Overcast
2:58 AM 32.0 °F 24.8 °F 32.0 °F 100% 29.61 in 3.0 mi ENE 8.1 mph - N/A   Overcast
3:03 AM 32.0 °F 24.8 °F 32.0 °F 100% 29.56 in 2.5 mi ENE 8.1 mph - N/A   Overcast
3:08 AM 32.0 °F 24.2 °F 32.0 °F 100% 29.55 in 2.5 mi ENE 9.2 mph - N/A   Overcast
3:13 AM 32.0 °F 23.6 °F 32.0 °F 100% 29.53 in 2.5 mi ENE 10.4 mph - N/A   Overcast
3:15 AM 32.0 °F 23.0 °F 32.0 °F 100% 29.53 in 2.5 mi ENE 11.5 mph - N/A   Overcast
3:25 AM 32.0 °F 24.8 °F 32.0 °F 100% 29.55 in 3.0 mi East 8.1 mph - N/A   Overcast
3:58 AM 32.5 °F 29.3 °F 32.5 °F 100% 29.57 in 3.0 mi NE 3.5 mph - 0.00 in   Overcast
4:00 AM 32.0 °F 27.5 °F 32.0 °F 100% 29.54 in 3.0 mi NE 4.6 mph - N/A   Overcast
4:15 AM 32.0 °F 26.4 °F 32.0 °F 100% 29.54 in 2.5 mi Variable 5.8 mph - N/A   Light Drizzle
4:19 AM 32.0 °F 26.4 °F 32.0 °F 100% 29.53 in 2.5 mi ENE 5.8 mph - N/A   Overcast
4:26 AM 32.0 °F 26.4 °F 32.0 °F 100% 29.52 in 2.5 mi NE 5.8 mph - N/A   Light Drizzle
4:31 AM 32.0 °F 26.4 °F 32.0 °F 100% 29.52 in 2.0 mi NE 5.8 mph - N/A   Light Drizzle
4:36 AM 32.0 °F 26.4 °F 32.0 °F 100% 29.51 in 2.5 mi NE 5.8 mph - N/A   Light Drizzle
4:51 AM 32.0 °F 26.4 °F 32.0 °F 100% 29.51 in 3.0 mi NE 5.8 mph - N/A Rain Light Rain
4:58 AM 32.4 °F 26.0 °F 32.4 °F 100% 29.55 in 3.0 mi ENE 6.9 mph - 0.01 in   Light Drizzle
5:03 AM 32.0 °F 27.5 °F 32.0 °F 100% 29.51 in 2.5 mi ENE 4.6 mph - N/A   Light Drizzle
5:08 AM 32.0 °F 27.5 °F 32.0 °F 100% 29.51 in 3.0 mi NNE 4.6 mph - N/A   Light Drizzle
5:13 AM 32.0 °F - 32.0 °F 100% 29.52 in 3.0 mi North 2.3 mph - N/A Rain Light Rain
5:18 AM 32.0 °F 25.6 °F 32.0 °F 100% 29.52 in 3.0 mi NNE 6.9 mph - N/A Rain Light Rain
5:28 AM 32.0 °F 25.6 °F 32.0 °F 100% 29.51 in 4.0 mi NNE 6.9 mph - N/A Rain Light Rain
5:33 AM 32.0 °F 26.4 °F 32.0 °F 100% 29.51 in 3.0 mi NNE 5.8 mph - N/A Rain Light Rain
5:38 AM 32.0 °F - 32.0 °F 100% 29.52 in 4.0 mi NE 2.3 mph - N/A Rain Light Rain
5:43 AM 32.0 °F 27.5 °F 32.0 °F 100% 29.52 in 4.0 mi NNE 4.6 mph - N/A   Light Drizzle
5:45 AM 32.0 °F 26.4 °F 32.0 °F 100% 29.51 in 4.0 mi North 5.8 mph - N/A   Overcast
5:47 AM 32.0 °F 25.6 °F 32.0 °F 100% 29.50 in 5.0 mi North 6.9 mph - N/A Rain Light Rain
5:52 AM 32.0 °F 26.4 °F 32.0 °F 100% 29.50 in 7.0 mi Variable 5.8 mph - N/A Rain Light Rain
5:58 AM 32.4 °F 29.1 °F 32.4 °F 100% 29.55 in 7.0 mi Variable 3.5 mph - 0.04 in   Light Drizzle
6:18 AM 32.0 °F 27.5 °F 32.0 °F 100% 29.52 in 6.0 mi North 4.6 mph - N/A Rain Light Rain
6:23 AM 32.0 °F - 32.0 °F 100% 29.53 in 7.0 mi NNE 2.3 mph - N/A   Light Drizzle
6:33 AM 32.0 °F 27.5 °F 32.0 °F 100% 29.51 in 6.0 mi Variable 4.6 mph - N/A Rain Light Rain
6:58 AM 32.4 °F 26.9 °F 32.4 °F 100% 29.55 in 5.0 mi Variable 5.8 mph - 0.00 in Rain Light Rain
7:07 AM 32.0 °F 27.5 °F 32.0 °F 100% 29.52 in 7.0 mi North 4.6 mph - N/A   Overcast
7:25 AM 32.0 °F 26.4 °F 32.0 °F 100% 29.52 in 1.8 mi North 5.8 mph - N/A Rain , Snow Light Rain
7:30 AM 32.0 °F 26.4 °F 32.0 °F 100% 29.52 in 4.0 mi NNW 5.8 mph - N/A Rain Light Rain
7:35 AM 32.0 °F 27.5 °F 32.0 °F 100% 29.52 in 2.5 mi NNW 4.6 mph - N/A Rain Light Rain
7:40 AM 32.0 °F 26.4 °F 32.0 °F 100% 29.52 in 3.0 mi NNW 5.8 mph - N/A Rain Light Rain
7:52 AM 32.0 °F 26.4 °F 32.0 °F 100% 29.52 in 1.0 mi NNW 5.8 mph - N/A Snow Light Snow
7:58 AM 32.0 °F 26.4 °F 32.0 °F 100% 29.56 in 1.0 mi NW 5.8 mph - N/A Snow Light Snow
8:03 AM 32.0 °F 26.4 °F 32.0 °F 100% 29.52 in 1.0 mi NNW 5.8 mph - N/A Snow Light Snow
8:35 AM 32.0 °F 24.2 °F 32.0 °F 100% 29.52 in 4.0 mi NNW 9.2 mph - N/A Snow Light Snow
8:55 AM 32.0 °F 23.6 °F 32.0 °F 100% 29.54 in - North 10.4 mph - N/A Snow Light Snow
9:14 AM 32.0 °F 24.2 °F 32.0 °F 100% 29.51 in 2.8 mi NNW 9.2 mph - N/A Snow Light Snow
9:52 AM 32.0 °F 24.2 °F 32.0 °F 100% 29.53 in 2.5 mi NW 9.2 mph - N/A Snow Light Snow
9:58 AM 32.0 °F 25.6 °F 32.0 °F 100% 29.57 in 2.5 mi NW 6.9 mph - N/A Snow Light Snow
10:03 AM 32.0 °F 25.6 °F 32.0 °F 100% 29.53 in 4.0 mi NW 6.9 mph - N/A Snow Light Snow
10:33 AM 32.0 °F 24.2 °F 32.0 °F 100% 29.55 in 3.0 mi NW 9.2 mph - N/A Snow Light Snow
10:58 AM 33.8 °F 25.3 °F 33.8 °F 100% 29.59 in 2.5 mi NW 11.5 mph - N/A Snow Light Snow
11:58 AM 32.0 °F 20.8 °F 32.0 °F 100% 29.62 in 3.0 mi WNW 17.3 mph 23.0 mph N/A Snow Light Snow
12:26 PM 32.0 °F 20.8 °F 32.0 °F 100% 29.59 in 4.0 mi WNW 17.3 mph 25.3 mph N/A Snow Light Snow
12:58 PM 33.8 °F 23.9 °F 33.8 °F 100% 29.64 in 10.0 mi NW 15.0 mph 24.2 mph 0.00 in Rain Light Rain
1:58 PM 33.8 °F 23.2 °F 33.8 °F 100% 29.66 in 6.0 mi NW 17.3 mph 27.6 mph N/A Snow Light Snow
2:58 PM 33.8 °F 22.2 °F 33.8 °F 100% 29.71 in 2.0 mi NW 20.7 mph 29.9 mph N/A Snow Light Snow
3:58 PM 32.0 °F 18.9 °F 32.0 °F 100% 29.76 in 2.5 mi NW 24.2 mph 35.7 mph N/A Snow Light Snow
4:03 PM 32.0 °F 18.9 °F 32.0 °F 100% 29.72 in 5.0 mi NW 24.2 mph 34.5 mph N/A   Mostly Cloudy
4:28 PM 33.8 °F 23.2 °F 32.0 °F 93% 29.75 in 6.0 mi NW 17.3 mph 32.2 mph N/A Snow Light Snow
4:38 PM 33.8 °F 22.2 °F 32.0 °F 93% 29.75 in 7.0 mi NW 20.7 mph 29.9 mph N/A Snow Light Snow
4:58 PM 34.0 °F 23.0 °F 32.5 °F 94% 29.81 in 10.0 mi WNW 18.4 mph 25.3 mph 0.00 in Rain Light Rain
5:13 PM 32.0 °F 20.1 °F 32.0 °F 100% 29.78 in 3.0 mi NW 19.6 mph 31.1 mph N/A Snow Light Snow
5:18 PM 32.0 °F 19.5 °F 32.0 °F 100% 29.78 in 4.0 mi NW 21.9 mph 34.5 mph N/A Snow Light Snow
5:53 PM 33.8 °F 23.5 °F 32.0 °F 93% 29.81 in 10.0 mi NW 16.1 mph 26.5 mph N/A Rain Light Rain
5:58 PM 34.2 °F 24.4 °F 32.0 °F 92% 29.85 in 10.0 mi NW 15.0 mph 26.5 mph 0.01 in Rain Light Rain
6:13 PM 32.0 °F 21.6 °F 32.0 °F 100% 29.83 in 7.0 mi NW 15.0 mph 26.5 mph N/A Rain Light Rain
6:18 PM 32.0 °F 21.6 °F 32.0 °F 100% 29.83 in 7.0 mi NW 15.0 mph - N/A Rain Light Rain
6:26 PM 32.0 °F 19.8 °F 32.0 °F 100% 29.84 in 10.0 mi NW 20.7 mph 24.2 mph N/A   Mostly Cloudy
6:51 PM 33.8 °F 23.5 °F 32.0 °F 93% 29.85 in 10.0 mi NW 16.1 mph 23.0 mph N/A   Overcast
6:56 PM 33.8 °F 22.8 °F 32.0 °F 93% 29.85 in 10.0 mi WNW 18.4 mph 24.2 mph N/A   Overcast
6:58 PM 34.0 °F 22.4 °F 31.6 °F 91% 29.89 in 10.0 mi WNW 20.7 mph 25.3 mph 0.00 in   Overcast
7:03 PM 33.8 °F 23.2 °F 32.0 °F 93% 29.85 in 10.0 mi WNW 17.3 mph 25.3 mph N/A   Overcast
7:43 PM 33.8 °F 24.3 °F 32.0 °F 93% 29.88 in 10.0 mi WNW 13.8 mph - N/A   Mostly Cloudy
7:52 PM 33.8 °F 23.9 °F 32.0 °F 93% 29.88 in 10.0 mi WNW 15.0 mph - N/A   Mostly Cloudy
7:58 PM 33.8 °F 24.8 °F 31.5 °F 91% 29.93 in 10.0 mi WNW 12.7 mph - 0.00 in   Mostly Cloudy
8:58 PM 33.6 °F 24.6 °F 31.3 °F 91% 29.96 in 10.0 mi WNW 12.7 mph - N/A   Overcast
9:58 PM 33.6 °F 24.1 °F 30.7 °F 89% 30.00 in 10.0 mi WNW 13.8 mph - N/A   Overcast
10:58 PM 30.7 °F 22.0 °F 28.4 °F 91% 30.02 in 10.0 mi WNW 10.4 mph - N/A   Clear
11:58 PM 28.0 °F 18.6 °F 27.1 °F 96% 30.04 in 10.0 mi West 10.4 mph - N/A   Clear